�N����,����,�g�[���i���ԁj���x,�g�[�����x,��g�[���i���ցj���x,����
 2003/01/01, 0:00,17.3,61,11.6,13.2
 2003/01/01, 0:15,16.9,58,11.8,12.6
 2003/01/01, 0:30,16.8,58,11.9,12.6
 2003/01/01, 0:45,16.7,57,11.9,12.7
 2003/01/01, 1:00,16.5,56,11.9,12.8
 2003/01/01, 1:15,16.3,56,11.9,12.9
 2003/01/01, 1:30,16.2,56,11.8,13
 2003/01/01, 1:45,15.9,56,11.8,13.1
 2003/01/01, 2:00,15.8,56,11.8,13.2
 2003/01/01, 2:15,15.8,56,11.7,13.2
 2003/01/01, 2:30,15.4,55,11.7,13.3
 2003/01/01, 2:45,15.3,55,11.7,13.4
 2003/01/01, 3:00,15.1,55,11.6,13.4
 2003/01/01, 3:15,15.1,55,11.6,13.5
 2003/01/01, 3:30,14.9,55,11.6,13.6
 2003/01/01, 3:45,14.7,55,11.5,13.7
 2003/01/01, 4:00,14.6,55,11.5,13.7
 2003/01/01, 4:15,14.6,55,11.4,13.8
 2003/01/01, 4:30,14.5,55,11.4,13.9
 2003/01/01, 4:45,14.5,55,11.4,13.9
 2003/01/01, 5:00,14.3,55,11.3,14
 2003/01/01, 5:15,14.3,55,11.3,14
 2003/01/01, 5:30,14.1,56,11.2,14.1
 2003/01/01, 5:45,14,61,11.2,14.1
 2003/01/01, 6:00,14,59,11.2,14.2
 2003/01/01, 6:15,14,58,11.1,14.2
 2003/01/01, 6:30,14,58,11.1,12.7
 2003/01/01, 6:45,14.5,65,11.1,13.2
 2003/01/01, 7:00,15,65,11.3,13.3
 2003/01/01, 7:15,15,62,11.5,12.8
 2003/01/01, 7:30,15.4,64,11.5,12.2
 2003/01/01, 7:45,15.8,62,11.5,12.3
 2003/01/01, 8:00,15.7,60,11.3,12.4
 2003/01/01, 8:15,15.8,60,11.2,12.4
 2003/01/01, 8:30,16,61,11.1,12.5
 2003/01/01, 8:45,16.8,59,11,12.6
 2003/01/01, 9:00,19.4,51,11,12.6
 2003/01/01, 9:15,17.9,55,10.9,12.7
 2003/01/01, 9:30,17.7,55,10.9,12.8
 2003/01/01, 9:45,17.7,55,10.9,12.8
 2003/01/01,10:00,18,55,10.9,12.9
 2003/01/01,10:15,17.7,55,10.8,12.4
 2003/01/01,10:30,17.3,52,10.9,12.5
 2003/01/01,10:45,17.6,54,10.8,12.5
 2003/01/01,11:00,18.8,60,10.8,12.6
 2003/01/01,11:15,19.4,58,10.7,12.7
 2003/01/01,11:30,19.6,56,10.8,12.6
 2003/01/01,11:45,19.8,59,10.8,12.6
 2003/01/01,12:00,19.7,58,10.8,12.7
 2003/01/01,12:15,19.1,55,10.9,12.5
 2003/01/01,12:30,18.7,52,11.2,12.5
 2003/01/01,12:45,18.4,50,11.4,12.4
 2003/01/01,13:00,18,49,11.4,12.4
 2003/01/01,13:15,18.3,49,11.5,12.5
 2003/01/01,13:30,18.4,49,11.7,12.6
 2003/01/01,13:45,18,48,11.8,12.7
 2003/01/01,14:00,17.7,48,11.8,12.7
 2003/01/01,14:15,17.2,48,11.9,12.8
 2003/01/01,14:30,16.9,49,11.9,12.9
 2003/01/01,14:45,16.8,48,11.9,13
 2003/01/01,15:00,16.4,48,11.9,13
 2003/01/01,15:15,16.2,49,12.1,13
 2003/01/01,15:30,16.2,49,12,13.1
 2003/01/01,15:45,16.1,51,11.9,13.1
 2003/01/01,16:00,16,52,11.8,13.2
 2003/01/01,16:15,16,52,11.8,13.3
 2003/01/01,16:30,15.7,53,11.7,13.4
 2003/01/01,16:45,15.8,53,11.7,12.8
 2003/01/01,17:00,15.9,53,11.6,12.9
 2003/01/01,17:15,15.9,53,11.6,13
 2003/01/01,17:30,16,54,11.6,13.1
 2003/01/01,17:45,16.1,53,11.5,13.1
 2003/01/01,18:00,16.1,53,11.5,13.2
 2003/01/01,18:15,16.3,53,11.5,13.2
 2003/01/01,18:30,16.2,53,11.4,13.3
 2003/01/01,18:45,16.2,52,11.4,13.4
 2003/01/01,19:00,16.4,52,11.4,13.4
 2003/01/01,19:15,16.4,54,11.3,13.5
 2003/01/01,19:30,15.9,50,11.3,13.6
 2003/01/01,19:45,16.7,54,11.2,13.3
 2003/01/01,20:00,16.7,51,11.1,12.7
 2003/01/01,20:15,16.7,52,11.1,11.9
 2003/01/01,20:30,16.4,51,11.2,12
 2003/01/01,20:45,16.6,53,11.3,12.1
 2003/01/01,21:00,16.6,53,11.4,12.1
 2003/01/01,21:15,16.5,53,11.4,12.2
 2003/01/01,21:30,16.6,54,11.3,12.3
 2003/01/01,21:45,16.6,54,11.2,12.4
 2003/01/01,22:00,16.6,53,11.2,12.5
 2003/01/01,22:15,16.5,52,11,12.6
 2003/01/01,22:30,16.6,52,10.9,12.7
 2003/01/01,22:45,16.5,52,10.8,12.5
 2003/01/01,23:00,16.4,53,10.7,12.5
 2003/01/01,23:15,16.4,51,10.7,12.6
 2003/01/01,23:30,16.4,55,10.6,12.7
 2003/01/01,23:45,16.3,55,10.6,12.7
 2003/01/02, 0:00,16,54,10.5,12.7
 2003/01/02, 0:15,15.8,53,10.5,12.8
 2003/01/02, 0:30,15.7,53,10.5,12.8
 2003/01/02, 0:45,15.4,52,10.4,12.9
 2003/01/02, 1:00,15.3,53,10.4,13
 2003/01/02, 1:15,15.2,52,10.4,13
 2003/01/02, 1:30,14.9,52,10.3,13.1
 2003/01/02, 1:45,14.8,52,10.2,13.1
 2003/01/02, 2:00,14.6,53,10.2,13.2
 2003/01/02, 2:15,14.4,53,10.2,13.2
 2003/01/02, 2:30,14.4,53,10.1,13.3
 2003/01/02, 2:45,14.2,53,10.1,13.3
 2003/01/02, 3:00,14,53,10,13.4
 2003/01/02, 3:15,14,53,10,13.4
 2003/01/02, 3:30,13.8,53,10,13.5
 2003/01/02, 3:45,13.7,54,9.9,13.5
 2003/01/02, 4:00,13.6,54,9.9,13.6
 2003/01/02, 4:15,13.5,54,9.8,13.6
 2003/01/02, 4:30,13.5,53,9.8,13.7
 2003/01/02, 4:45,13.3,53,9.7,13.7
 2003/01/02, 5:00,13.3,53,9.7,13.7
 2003/01/02, 5:15,13.1,52,9.6,13.8
 2003/01/02, 5:30,13.1,53,9.5,13.8
 2003/01/02, 5:45,13.1,56,9.5,13.8
 2003/01/02, 6:00,12.9,55,9.4,13.9
 2003/01/02, 6:15,12.8,54,9.4,11.9
 2003/01/02, 6:30,13.1,55,9.3,11.9
 2003/01/02, 6:45,13.4,56,9.3,12.8
 2003/01/02, 7:00,13.6,61,9.2,13.1
 2003/01/02, 7:15,14,63,9.1,13.1
 2003/01/02, 7:30,13.7,54,9.1,12.9
 2003/01/02, 7:45,14.1,56,9.4,12.9
 2003/01/02, 8:00,15.9,50,9.5,12.9
 2003/01/02, 8:15,17.2,48,9.4,13
 2003/01/02, 8:30,16.5,48,9.3,13
 2003/01/02, 8:45,17.7,45,9.2,12.6
 2003/01/02, 9:00,17.2,45,9.2,12.7
 2003/01/02, 9:15,16.3,48,9.1,12.7
 2003/01/02, 9:30,16.1,49,9.1,12.8
 2003/01/02, 9:45,17.3,53,9.1,12.8
 2003/01/02,10:00,16.9,53,9.1,12.1
 2003/01/02,10:15,18,55,9.1,12.2
 2003/01/02,10:30,18.5,57,9,12.3
 2003/01/02,10:45,18.4,55,9,12.3
 2003/01/02,11:00,18.7,55,9,12.4
 2003/01/02,11:15,18.1,54,8.9,11.6
 2003/01/02,11:30,18,54,8.9,11.6
 2003/01/02,11:45,17.8,54,8.9,11.7
 2003/01/02,12:00,18.1,54,8.8,11.8
 2003/01/02,12:15,17.7,55,8.8,11.8
 2003/01/02,12:30,17.7,56,8.8,11.9
 2003/01/02,12:45,17.8,57,8.8,12
 2003/01/02,13:00,18.1,65,8.9,11.6
 2003/01/02,13:15,17.8,60,8.9,11.7
 2003/01/02,13:30,17.5,58,8.9,11.7
 2003/01/02,13:45,17.7,58,8.9,11.8
 2003/01/02,14:00,17.6,59,9,11.9
 2003/01/02,14:15,17.3,59,9,11.9
 2003/01/02,14:30,17.2,58,9,12
 2003/01/02,14:45,17,58,9.1,12
 2003/01/02,15:00,16.8,57,9.1,12
 2003/01/02,15:15,16.6,56,9.2,12.1
 2003/01/02,15:30,16.5,56,9.2,12.1
 2003/01/02,15:45,16.2,57,9.2,12.2
 2003/01/02,16:00,16.1,55,9.2,12.3
 2003/01/02,16:15,15.7,55,9.2,12.3
 2003/01/02,16:30,15.7,55,9.2,12.4
 2003/01/02,16:45,15.8,54,9.2,12.3
 2003/01/02,17:00,15.9,56,9.2,12.3
 2003/01/02,17:15,15.9,57,9.1,12.4
 2003/01/02,17:30,16.1,58,9.1,12.4
 2003/01/02,17:45,16,58,9.1,12.5
 2003/01/02,18:00,16,56,9.1,12.5
 2003/01/02,18:15,16,57,9.1,12.6
 2003/01/02,18:30,16,58,9.1,12.3
 2003/01/02,18:45,16.1,55,9.1,12.3
 2003/01/02,19:00,16.2,56,9.1,12.3
 2003/01/02,19:15,16.4,53,9,12.4
 2003/01/02,19:30,16.2,50,9,12.4
 2003/01/02,19:45,16.2,49,9,12.4
 2003/01/02,20:00,16.1,50,9,12.4
 2003/01/02,20:15,16.4,52,9.2,12.4
 2003/01/02,20:30,16.4,53,9.4,12.5
 2003/01/02,20:45,16.7,58,9.4,12.5
 2003/01/02,21:00,16.7,58,9.5,12.6
 2003/01/02,21:15,16.7,60,9.6,12.1
 2003/01/02,21:30,16.6,59,9.5,12.2
 2003/01/02,21:45,16.4,56,9.5,12.2
 2003/01/02,22:00,16.3,56,9.5,12.3
 2003/01/02,22:15,16.5,55,9.5,12.3
 2003/01/02,22:30,16.6,56,9.4,12.4
 2003/01/02,22:45,16.6,55,9.4,12.5
 2003/01/02,23:00,16.5,55,9.4,12.5
 2003/01/02,23:15,16.3,55,9.3,12.6
 2003/01/02,23:30,16.2,55,9.3,12.7
 2003/01/02,23:45,15.9,54,9.4,11.9
 2003/01/03, 0:00,15.6,54,9.5,11.9
 2003/01/03, 0:15,15.4,53,9.5,12
 2003/01/03, 0:30,15.1,53,9.6,12
 2003/01/03, 0:45,14.7,53,9.6,12.1
 2003/01/03, 1:00,14.5,54,9.6,12.2
 2003/01/03, 1:15,14.3,53,9.6,12.2
 2003/01/03, 1:30,14.1,53,9.6,12.3
 2003/01/03, 1:45,13.9,53,9.6,12.4
 2003/01/03, 2:00,13.7,53,9.5,12.4
 2003/01/03, 2:15,13.6,53,9.5,12.5
 2003/01/03, 2:30,13.5,54,9.5,12.6
 2003/01/03, 2:45,13.3,54,9.5,12.6
 2003/01/03, 3:00,13.2,54,9.4,12.7
 2003/01/03, 3:15,13,54,9.4,12.7
 2003/01/03, 3:30,13,53,9.4,12.8
 2003/01/03, 3:45,12.9,54,9.4,12.9
 2003/01/03, 4:00,12.6,54,9.3,12.9
 2003/01/03, 4:15,12.6,54,9.3,12.9
 2003/01/03, 4:30,12.5,54,9.3,13
 2003/01/03, 4:45,12.4,54,9.3,13
 2003/01/03, 5:00,12.2,53,9.2,13.1
 2003/01/03, 5:15,12.2,54,9.2,13.1
 2003/01/03, 5:30,12.2,54,9.2,13.2
 2003/01/03, 5:45,12.1,55,9.1,13.2
 2003/01/03, 6:00,12,56,9.1,13.2
 2003/01/03, 6:15,12,60,9.1,13.3
 2003/01/03, 6:30,12,59,9,13.3
 2003/01/03, 6:45,11.9,57,9,11.4
 2003/01/03, 7:00,12.3,66,9,11.4
 2003/01/03, 7:15,12.9,73,8.9,12
 2003/01/03, 7:30,13.2,72,8.8,12.1
 2003/01/03, 7:45,13.4,65,8.7,12.1
 2003/01/03, 8:00,13.7,65,8.9,12.1
 2003/01/03, 8:15,13.5,62,9,12
 2003/01/03, 8:30,12.6,50,9,12
 2003/01/03, 8:45,13.4,55,9,12.1
 2003/01/03, 9:00,13.5,55,8.9,11.6
 2003/01/03, 9:15,13.4,57,8.9,11.6
 2003/01/03, 9:30,13.3,59,9,11.7
 2003/01/03, 9:45,13.1,62,8.9,11.7
 2003/01/03,10:00,13,64,8.9,11.8
 2003/01/03,10:15,12.9,65,8.9,11.8
 2003/01/03,10:30,12.9,66,8.8,11.9
 2003/01/03,10:45,12.8,67,8.8,12
 2003/01/03,11:00,12.6,68,8.8,12
 2003/01/03,11:15,12.6,69,8.7,12.1
 2003/01/03,11:30,12.5,69,8.7,12.1
 2003/01/03,11:45,12.5,70,8.7,12.2
 2003/01/03,12:00,12.4,70,8.6,12.2
 2003/01/03,12:15,12.3,72,8.6,12.3
 2003/01/03,12:30,12.2,72,8.6,12.3
 2003/01/03,12:45,12.1,72,8.6,12.4
 2003/01/03,13:00,12.1,72,8.6,12.4
 2003/01/03,13:15,12,72,8.6,12.5
 2003/01/03,13:30,11.9,72,8.6,12.5
 2003/01/03,13:45,11.9,72,8.6,12.6
 2003/01/03,14:00,11.9,72,8.6,11.5
 2003/01/03,14:15,11.8,72,8.6,11.4
 2003/01/03,14:30,11.6,73,8.6,11.5
 2003/01/03,14:45,11.7,73,8.6,11.6
 2003/01/03,15:00,11.7,74,8.5,11.6
 2003/01/03,15:15,11.5,74,8.5,11.7
 2003/01/03,15:30,11.5,74,8.5,11.7
 2003/01/03,15:45,11.4,75,8.5,11.8
 2003/01/03,16:00,11.4,75,8.5,11.9
 2003/01/03,16:15,11.8,78,8.5,11.9
 2003/01/03,16:30,12.2,79,8.5,12
 2003/01/03,16:45,12.6,78,8.5,12
 2003/01/03,17:00,12.7,79,8.6,12.1
 2003/01/03,17:15,13.2,79,8.6,12.1
 2003/01/03,17:30,13.3,78,8.6,12.1
 2003/01/03,17:45,13.3,78,8.6,12.2
 2003/01/03,18:00,13.5,77,8.6,12.2
 2003/01/03,18:15,13.7,76,8.6,11.2
 2003/01/03,18:30,13.6,76,8.6,11.3
 2003/01/03,18:45,13.6,77,8.7,11.3
 2003/01/03,19:00,14,81,8.7,11.4
 2003/01/03,19:15,13.8,81,8.7,11.5
 2003/01/03,19:30,13.7,77,8.7,11.5
 2003/01/03,19:45,13.8,75,8.9,11.5
 2003/01/03,20:00,13.6,71,9.1,11.5
 2003/01/03,20:15,14,74,9,11.6
 2003/01/03,20:30,14.2,72,8.9,11.6
 2003/01/03,20:45,14.4,71,9,11.5
 2003/01/03,21:00,14.5,71,9,11.6
 2003/01/03,21:15,14.4,70,9,11.6
 2003/01/03,21:30,14.5,71,9,11.7
 2003/01/03,21:45,14.4,70,9.1,11.7
 2003/01/03,22:00,14.7,72,9.1,11.8
 2003/01/03,22:15,15,71,9.2,11.9
 2003/01/03,22:30,15.1,72,9.2,11.9
 2003/01/03,22:45,15.2,72,9.2,12
 2003/01/03,23:00,15.4,71,9.3,11.8
 2003/01/03,23:15,15.5,71,9.3,11.9
 2003/01/03,23:30,15.8,73,9.4,11.9
 2003/01/03,23:45,15.7,73,9.5,12
 2003/01/04, 0:00,15.6,71,9.5,12
 2003/01/04, 0:15,15.7,70,9.5,12.1
 2003/01/04, 0:30,15.8,71,9.5,12.2
 2003/01/04, 0:45,15.9,70,9.5,12.3
 2003/01/04, 1:00,15.5,70,9.6,12.3
 2003/01/04, 1:15,15,70,9.6,12.4
 2003/01/04, 1:30,14.9,70,9.6,12.4
 2003/01/04, 1:45,14.8,70,9.6,12.5
 2003/01/04, 2:00,14.5,70,9.6,12.6
 2003/01/04, 2:15,14.2,71,9.6,12.6
 2003/01/04, 2:30,14.2,70,9.6,12.7
 2003/01/04, 2:45,13.8,69,9.7,11.8
 2003/01/04, 3:00,13.7,69,9.7,12
 2003/01/04, 3:15,13.5,69,9.7,12
 2003/01/04, 3:30,13.5,69,9.7,12.1
 2003/01/04, 3:45,13.4,68,9.7,12.2
 2003/01/04, 4:00,13.2,68,9.7,12.2
 2003/01/04, 4:15,13,68,9.7,12.3
 2003/01/04, 4:30,13,68,9.7,12.4
 2003/01/04, 4:45,13,69,9.6,12.4
 2003/01/04, 5:00,12.9,68,9.6,12.5
 2003/01/04, 5:15,12.9,68,9.6,12.5
 2003/01/04, 5:30,12.8,68,9.5,12.6
 2003/01/04, 5:45,12.6,67,9.5,12.6
 2003/01/04, 6:00,12.7,67,9.4,12.7
 2003/01/04, 6:15,12.5,67,9.4,12.7
 2003/01/04, 6:30,12.4,66,9.3,12.8
 2003/01/04, 6:45,12.4,70,9.3,11.8
 2003/01/04, 7:00,12.8,71,9.3,11.9
 2003/01/04, 7:15,13,71,9.3,12.1
 2003/01/04, 7:30,13.3,67,9.2,12.1
 2003/01/04, 7:45,13.4,65,9.2,12.2
 2003/01/04, 8:00,14.4,61,9.2,11.9
 2003/01/04, 8:15,14.6,57,9.2,11.9
 2003/01/04, 8:30,14.1,58,9.3,12
 2003/01/04, 8:45,14.1,54,9.5,12
 2003/01/04, 9:00,14.8,59,9.6,11.6
 2003/01/04, 9:15,17.4,55,9.8,11.6
 2003/01/04, 9:30,16,62,9.7,11.6
 2003/01/04, 9:45,16.1,63,9.7,11.7
 2003/01/04,10:00,16.4,59,9.7,11.8
 2003/01/04,10:15,16.6,63,9.7,11.8
 2003/01/04,10:30,17.3,65,9.6,11.9
 2003/01/04,10:45,16.7,67,9.6,11.9
 2003/01/04,11:00,17.1,69,9.6,12
 2003/01/04,11:15,17.2,70,9.6,12.1
 2003/01/04,11:30,16.9,69,9.6,11.8
 2003/01/04,11:45,16.2,67,9.6,11.8
 2003/01/04,12:00,15.8,67,9.6,11.9
 2003/01/04,12:15,15.3,66,9.6,11.9
 2003/01/04,12:30,14.9,66,9.6,12
 2003/01/04,12:45,15.4,69,9.7,12.1
 2003/01/04,13:00,15.4,70,9.7,12.1
 2003/01/04,13:15,15.3,68,9.7,11.9
 2003/01/04,13:30,15.3,67,9.7,11.8
 2003/01/04,13:45,15,65,9.8,11.9
 2003/01/04,14:00,14.6,63,9.8,12
 2003/01/04,14:15,14.8,66,9.7,12
 2003/01/04,14:30,14.8,66,9.7,12.1
 2003/01/04,14:45,15.1,66,9.7,12.2
 2003/01/04,15:00,15.3,67,9.7,12.3
 2003/01/04,15:15,15.2,65,9.7,11.4
 2003/01/04,15:30,15.1,64,10.1,11.5
 2003/01/04,15:45,14.8,62,10.4,11.6
 2003/01/04,16:00,14.2,61,10.4,11.6
 2003/01/04,16:15,13.9,60,10.4,11.7
 2003/01/04,16:30,13.6,59,10.4,11.8
 2003/01/04,16:45,13.4,60,10.4,11.9
 2003/01/04,17:00,13.2,60,10.3,12
 2003/01/04,17:15,12.9,59,10.3,12
 2003/01/04,17:30,12.5,60,10.2,12.1
 2003/01/04,17:45,12.5,61,10.2,12.2
 2003/01/04,18:00,12.4,62,10.1,12.3
 2003/01/04,18:15,12.3,61,10.1,12.3
 2003/01/04,18:30,12.2,61,10,12.4
 2003/01/04,18:45,12.1,61,10,12.5
 2003/01/04,19:00,11.9,60,9.9,12.5
 2003/01/04,19:15,11.8,60,9.8,12.6
 2003/01/04,19:30,11.9,62,9.8,12.7
 2003/01/04,19:45,12.2,62,9.8,11.5
 2003/01/04,20:00,12.5,64,9.6,11.5
 2003/01/04,20:15,12.9,63,9.5,11.4
 2003/01/04,20:30,13.3,64,9.4,11.4
 2003/01/04,20:45,13.3,63,9.4,11.5
 2003/01/04,21:00,13.4,63,9.4,11.6
 2003/01/04,21:15,13.5,64,9.3,11.6
 2003/01/04,21:30,13.7,62,9.2,11.4
 2003/01/04,21:45,13.8,62,9.1,11.1
 2003/01/04,22:00,14,62,9.1,11.2
 2003/01/04,22:15,14.2,61,9,11.2
 2003/01/04,22:30,13.9,62,9,11.5
 2003/01/04,22:45,14,62,8.9,11.5
 2003/01/04,23:00,14.1,61,8.9,11.6
 2003/01/04,23:15,14,64,8.9,11.7
 2003/01/04,23:30,14.4,66,8.9,11.7
 2003/01/04,23:45,14.3,66,8.9,11.8
 2003/01/05, 0:00,14.3,64,8.9,11.8
 2003/01/05, 0:15,14.3,64,8.9,11.9
 2003/01/05, 0:30,14,64,8.9,12
 2003/01/05, 0:45,13.7,63,9,11.4
 2003/01/05, 1:00,13.7,64,9,11.5
 2003/01/05, 1:15,13.4,64,8.9,11.6
 2003/01/05, 1:30,13.3,63,8.9,11.6
 2003/01/05, 1:45,13.2,63,8.8,11.7
 2003/01/05, 2:00,13,63,8.8,11.2
 2003/01/05, 2:15,12.9,62,8.7,11.2
 2003/01/05, 2:30,12.7,62,8.6,11.3
 2003/01/05, 2:45,12.5,62,8.6,11.3
 2003/01/05, 3:00,12.3,62,8.5,10.8
 2003/01/05, 3:15,12.2,62,8.5,10.9
 2003/01/05, 3:30,11.9,61,8.4,10.9
 2003/01/05, 3:45,11.7,61,8.4,11
 2003/01/05, 4:00,11.4,61,8.3,11.1
 2003/01/05, 4:15,11.2,59,8.3,11.1
 2003/01/05, 4:30,10.9,58,8.3,11.2
 2003/01/05, 4:45,10.8,58,8.3,11.2
 2003/01/05, 5:00,10.6,59,8.2,11.3
 2003/01/05, 5:15,10.5,58,8.2,11.4
 2003/01/05, 5:30,10.1,57,8.2,11.4
 2003/01/05, 5:45,10.2,58,8.1,11.5
 2003/01/05, 6:00,10.4,59,8.1,11.5
 2003/01/05, 6:15,10.3,59,8,11.6
 2003/01/05, 6:30,10.1,59,7.9,11.6
 2003/01/05, 6:45,9.9,63,7.9,11.7
 2003/01/05, 7:00,9.8,63,7.8,9.8
 2003/01/05, 7:15,10.5,68,7.8,9.9
 2003/01/05, 7:30,11.1,68,7.7,9.9
 2003/01/05, 7:45,12.3,62,7.7,10
 2003/01/05, 8:00,14.1,54,7.7,11
 2003/01/05, 8:15,15.8,49,7.6,11
 2003/01/05, 8:30,17,43,7.7,11
 2003/01/05, 8:45,18.4,40,8,10.9
 2003/01/05, 9:00,18.5,41,8,10.9
 2003/01/05, 9:15,19.7,40,8,11
 2003/01/05, 9:30,19.8,44,8,11
 2003/01/05, 9:45,16.2,37,8.3,11
 2003/01/05,10:00,12.8,31,8.3,11.1
 2003/01/05,10:15,13.6,36,8.2,11.2
 2003/01/05,10:30,14.3,38,8.4,11
 2003/01/05,10:45,14.3,40,8.7,11
 2003/01/05,11:00,14.5,41,9,11.1
 2003/01/05,11:15,13.6,42,9.2,11.1
 2003/01/05,11:30,13.1,43,9.2,11.2
 2003/01/05,11:45,12.8,44,9.2,11.2
 2003/01/05,12:00,12.6,44,9.2,11.3
 2003/01/05,12:15,13.2,45,9,11
 2003/01/05,12:30,13.4,48,8.9,11
 2003/01/05,12:45,13.7,53,8.7,11.1
 2003/01/05,13:00,13.6,51,8.6,11.1
 2003/01/05,13:15,14,51,8.5,11.2
 2003/01/05,13:30,14.1,51,8.5,11.2
 2003/01/05,13:45,14.3,52,8.4,11.3
 2003/01/05,14:00,14.5,53,8.4,10.9
 2003/01/05,14:15,14.7,54,8.3,10.8
 2003/01/05,14:30,14.9,54,8.3,10.9
 2003/01/05,14:45,15.1,53,8.3,11
 2003/01/05,15:00,15.3,52,8.3,11
 2003/01/05,15:15,15.2,51,8.2,11.1
 2003/01/05,15:30,15.2,50,8.3,10.5
 2003/01/05,15:45,14.8,48,8.2,10.5
 2003/01/05,16:00,14.9,47,8.1,10.6
 2003/01/05,16:15,14.7,46,8.1,10.7
 2003/01/05,16:30,14.6,48,8,11.4
 2003/01/05,16:45,14.8,51,8,11.4
 2003/01/05,17:00,15,53,8,11.5
 2003/01/05,17:15,14.9,53,8,11.1
 2003/01/05,17:30,14.7,52,8.1,11.2
 2003/01/05,17:45,14.7,53,8.1,11.2
 2003/01/05,18:00,14.7,53,8.1,11.3
 2003/01/05,18:15,14.7,52,8.2,10.5
 2003/01/05,18:30,14.8,53,8.1,10.6
 2003/01/05,18:45,14.6,53,8.1,10.7
 2003/01/05,19:00,14.6,52,8.1,10.4
 2003/01/05,19:15,14.4,53,8.1,10.4
 2003/01/05,19:30,14.5,53,8,10.5
 2003/01/05,19:45,14.4,52,8,10.5
 2003/01/05,20:00,14.2,48,8,10.6
 2003/01/05,20:15,14.5,51,7.9,10.7
 2003/01/05,20:30,14.3,51,7.8,10.7
 2003/01/05,20:45,14.3,51,7.8,10.8
 2003/01/05,21:00,14.3,51,7.7,10.9
 2003/01/05,21:15,14.5,51,7.8,10.8
 2003/01/05,21:30,14.5,52,7.8,10.8
 2003/01/05,21:45,15.1,60,7.9,10.7
 2003/01/05,22:00,15.3,60,7.9,10.7
 2003/01/05,22:15,15.2,56,8,10.8
 2003/01/05,22:30,15.2,56,8,10.8
 2003/01/05,22:45,15,56,7.9,10.9
 2003/01/05,23:00,14.9,55,7.9,10.9
 2003/01/05,23:15,14.8,57,7.8,11
 2003/01/05,23:30,15.2,59,7.8,11
 2003/01/05,23:45,14.7,59,7.9,11.1
 2003/01/06, 0:00,14.4,57,8,11.2
 2003/01/06, 0:15,14.1,56,8,11.2
 2003/01/06, 0:30,13.8,56,8,11.3
 2003/01/06, 0:45,13.3,55,8,11.4
 2003/01/06, 1:00,12.9,55,8,11.4
 2003/01/06, 1:15,12.7,54,8.1,11.5
 2003/01/06, 1:30,12.4,54,8.1,11.5
 2003/01/06, 1:45,12.2,55,8.1,11.6
 2003/01/06, 2:00,12.1,55,8,11.7
 2003/01/06, 2:15,12,56,8,11.7
 2003/01/06, 2:30,11.8,56,7.9,11.8
 2003/01/06, 2:45,11.7,56,7.9,11.8
 2003/01/06, 3:00,11.4,56,7.8,11.9
 2003/01/06, 3:15,11.3,56,7.7,11.9
 2003/01/06, 3:30,11.2,56,7.7,12
 2003/01/06, 3:45,11.2,55,7.6,12
 2003/01/06, 4:00,11,55,7.5,12
 2003/01/06, 4:15,10.9,55,7.5,12.1
 2003/01/06, 4:30,10.7,56,7.4,12.1
 2003/01/06, 4:45,10.6,55,7.3,12.1
 2003/01/06, 5:00,10.6,55,7.3,12.1
 2003/01/06, 5:15,10.4,55,7.2,12.2
 2003/01/06, 5:30,10.3,55,7.2,12.2
 2003/01/06, 5:45,10.2,55,7.1,12.2
 2003/01/06, 6:00,10,55,7.1,12.2
 2003/01/06, 6:15,9.9,56,7,10.2
 2003/01/06, 6:30,10.3,57,7,11.1
 2003/01/06, 6:45,10.9,67,7,11.2
 2003/01/06, 7:00,11,64,7,10.6
 2003/01/06, 7:15,11.5,64,7,10.7
 2003/01/06, 7:30,11.8,63,7,10.7
 2003/01/06, 7:45,11.9,58,7,10.5
 2003/01/06, 8:00,12.2,59,7.3,10.5
 2003/01/06, 8:15,12.6,60,7.5,10.5
 2003/01/06, 8:30,14.4,57,7.8,10.5
 2003/01/06, 8:45,16.9,51,7.7,10.5
 2003/01/06, 9:00,17.6,49,7.4,10.6
 2003/01/06, 9:15,18.4,49,7.3,10.6
 2003/01/06, 9:30,18.9,48,7.2,10.7
 2003/01/06, 9:45,18.5,49,7.2,10.7
 2003/01/06,10:00,18.1,51,7.1,10.7
 2003/01/06,10:15,17.7,52,7.1,10.8
 2003/01/06,10:30,17.5,54,7.1,10.8
 2003/01/06,10:45,17.5,55,7.1,10.9
 2003/01/06,11:00,17.5,56,7.1,10.9
 2003/01/06,11:15,17.5,57,7.1,11
 2003/01/06,11:30,17.7,57,7.1,11
 2003/01/06,11:45,17.6,58,7.1,11.1
 2003/01/06,12:00,17.6,57,7.1,11.1
 2003/01/06,12:15,17.5,57,7.1,11.2
 2003/01/06,12:30,17.6,57,7.1,11.2
 2003/01/06,12:45,17.4,56,7.2,11.3
 2003/01/06,13:00,16.4,48,7.6,11.3
 2003/01/06,13:15,16.5,52,7.9,11.4
 2003/01/06,13:30,17,54,7.9,11.4
 2003/01/06,13:45,17,55,7.9,11.5
 2003/01/06,14:00,16.5,58,8,11.6
 2003/01/06,14:15,16.5,58,8,11.6
 2003/01/06,14:30,16.2,58,8,11.7
 2003/01/06,14:45,15.9,58,8,11.7
 2003/01/06,15:00,15.6,58,8,11.8
 2003/01/06,15:15,15.4,57,8,11.8
 2003/01/06,15:30,15.7,57,8,11.9
 2003/01/06,15:45,15.6,57,8,11.9
 2003/01/06,16:00,15.6,58,8,12
 2003/01/06,16:15,15.6,58,8,12.1
 2003/01/06,16:30,15.5,58,8,12.1
 2003/01/06,16:45,15.7,57,8,12.1
 2003/01/06,17:00,15.5,57,8,12.2
 2003/01/06,17:15,15.4,56,8,9.6
 2003/01/06,17:30,15.4,55,8,9.6
 2003/01/06,17:45,15.3,56,8,9.6
 2003/01/06,18:00,15.1,50,7.9,9.7
 2003/01/06,18:15,15,49,7.9,9.8
 2003/01/06,18:30,14.8,48,7.9,9.9
 2003/01/06,18:45,14.8,48,7.8,10
 2003/01/06,19:00,14.7,47,7.8,10
 2003/01/06,19:15,14.8,46,7.8,10.1
 2003/01/06,19:30,14.9,46,7.7,10.2
 2003/01/06,19:45,14.8,47,7.7,10.3
 2003/01/06,20:00,15.2,50,7.7,10.4
 2003/01/06,20:15,15.2,51,7.8,10.5
 2003/01/06,20:30,15.3,51,7.8,10.8
 2003/01/06,20:45,15.4,52,7.8,10.7
 2003/01/06,21:00,15.4,53,7.8,10.8
 2003/01/06,21:15,15,52,7.9,10.8
 2003/01/06,21:30,15,54,8.1,10.6
 2003/01/06,21:45,15.1,53,8.2,10.5
 2003/01/06,22:00,14.9,52,8.2,10.5
 2003/01/06,22:15,15,54,8.2,10.6
 2003/01/06,22:30,15,55,8.2,10.6
 2003/01/06,22:45,15,55,8.2,10.7
 2003/01/06,23:00,15.1,57,8.2,10.8
 2003/01/06,23:15,15.2,58,8.3,10.9
 2003/01/06,23:30,15.1,57,8.3,10.9
 2003/01/06,23:45,14.9,57,8.2,11
 2003/01/07, 0:00,14.7,57,8.3,10.6
 2003/01/07, 0:15,14.3,56,8.4,10.3
 2003/01/07, 0:30,14,55,8.4,10.3
 2003/01/07, 0:45,13.6,55,8.5,10.4
 2003/01/07, 1:00,13.4,55,8.5,10.5
 2003/01/07, 1:15,13.2,55,8.5,10.6
 2003/01/07, 1:30,13,55,8.5,10.6
 2003/01/07, 1:45,12.6,55,8.4,10.7
 2003/01/07, 2:00,12.5,54,8.4,10.8
 2003/01/07, 2:15,12.2,54,8.4,10.9
 2003/01/07, 2:30,12,55,8.3,10.9
 2003/01/07, 2:45,11.8,54,8.3,11
 2003/01/07, 3:00,11.8,54,8.3,11.1
 2003/01/07, 3:15,11.6,54,8.2,11.2
 2003/01/07, 3:30,11.5,54,8.2,11.2
 2003/01/07, 3:45,11.4,54,8.1,11.3
 2003/01/07, 4:00,11.2,54,8.1,11.4
 2003/01/07, 4:15,11,54,8,11.4
 2003/01/07, 4:30,11,54,8,11.5
 2003/01/07, 4:45,10.9,55,7.9,11.5
 2003/01/07, 5:00,10.7,55,7.9,11.6
 2003/01/07, 5:15,10.6,55,7.8,11.6
 2003/01/07, 5:30,10.6,55,7.8,11.7
 2003/01/07, 5:45,10.5,54,7.7,11.7
 2003/01/07, 6:00,10.4,55,7.7,11.8
 2003/01/07, 6:15,10.4,55,7.7,9.8
 2003/01/07, 6:30,10.3,56,7.6,10.1
 2003/01/07, 6:45,10.9,66,7.6,10.3
 2003/01/07, 7:00,11.8,71,7.6,10.3
 2003/01/07, 7:15,12.2,72,7.6,10.4
 2003/01/07, 7:30,12,65,7.7,10.3
 2003/01/07, 7:45,12.2,67,8.1,10.2
 2003/01/07, 8:00,12,67,8.1,10.2
 2003/01/07, 8:15,12,66,8.1,10.2
 2003/01/07, 8:30,11.7,66,8.5,10.3
 2003/01/07, 8:45,11.6,66,8.4,10.4
 2003/01/07, 9:00,11.5,66,8.3,10.5
 2003/01/07, 9:15,11.7,65,8.2,10.5
 2003/01/07, 9:30,12.8,63,8.1,10.6
 2003/01/07, 9:45,13.1,60,8,10.7
 2003/01/07,10:00,13.5,59,8,10.7
 2003/01/07,10:15,13.8,60,8,10.8
 2003/01/07,10:30,14,60,7.9,10.8
 2003/01/07,10:45,14.3,60,7.9,10.9
 2003/01/07,11:00,14.5,61,8,11
 2003/01/07,11:15,14.5,62,8,11
 2003/01/07,11:30,14.4,59,8,11.1
 2003/01/07,11:45,14.3,59,8,11.2
 2003/01/07,12:00,14.5,62,8.1,11.2
 2003/01/07,12:15,14.9,62,8.1,11.3
 2003/01/07,12:30,15.1,62,8.1,11.3
 2003/01/07,12:45,15.2,61,8.2,11.4
 2003/01/07,13:00,15.3,62,8.2,11.4
 2003/01/07,13:15,15.4,61,8.3,11.5
 2003/01/07,13:30,15.4,59,8.4,11.6
 2003/01/07,13:45,15.4,60,8.5,11.6
 2003/01/07,14:00,15.5,60,8.5,11.7
 2003/01/07,14:15,15.6,58,8.6,11.7
 2003/01/07,14:30,15.4,59,8.6,11.8
 2003/01/07,14:45,15.3,58,8.7,9.7
 2003/01/07,15:00,15.1,58,8.7,9.7
 2003/01/07,15:15,14.8,58,8.7,9.6
 2003/01/07,15:30,14.8,58,8.7,9.6
 2003/01/07,15:45,14.6,58,8.7,9.6
 2003/01/07,16:00,14.3,58,8.7,9.7
 2003/01/07,16:15,14.3,59,8.7,9.8
 2003/01/07,16:30,14.3,60,8.6,9.9
 2003/01/07,16:45,14.2,59,8.6,9.9
 2003/01/07,17:00,14.1,55,8.8,10
 2003/01/07,17:15,14.4,55,9,10
 2003/01/07,17:30,14.5,55,8.9,10.1
 2003/01/07,17:45,14.7,54,8.8,10.2
 2003/01/07,18:00,14.8,54,8.8,10.3
 2003/01/07,18:15,15,54,8.8,10.3
 2003/01/07,18:30,15,54,8.7,10.4
 2003/01/07,18:45,15.2,57,8.7,10.5
 2003/01/07,19:00,15.5,65,8.6,10.5
 2003/01/07,19:15,15.6,66,8.6,10.6
 2003/01/07,19:30,15.9,65,8.6,10.7
 2003/01/07,19:45,15.7,64,8.5,10.7
 2003/01/07,20:00,15.8,63,8.5,10.8
 2003/01/07,20:15,15.3,58,8.5,10.9
 2003/01/07,20:30,15.5,61,8.5,11
 2003/01/07,20:45,15.1,58,8.5,11.1
 2003/01/07,21:00,15.4,62,8.5,10.9
 2003/01/07,21:15,15.4,63,8.6,10.9
 2003/01/07,21:30,15.1,62,8.8,11
 2003/01/07,21:45,15.2,62,8.8,11
 2003/01/07,22:00,14.9,58,9,10.6
 2003/01/07,22:15,15.1,63,9,10.5
 2003/01/07,22:30,15.4,64,8.8,10.5
 2003/01/07,22:45,15.4,63,8.9,10.6
 2003/01/07,23:00,15.3,63,8.8,10.7
 2003/01/07,23:15,15.4,65,8.7,10.7
 2003/01/07,23:30,15.5,67,8.7,10.8
 2003/01/07,23:45,15.3,65,8.6,10.9
 2003/01/08, 0:00,15.2,62,8.6,10.9
 2003/01/08, 0:15,15,63,8.6,11
 2003/01/08, 0:30,14.7,61,8.7,10.6